Location: Terra Rouge Observatory
(46.0000°N, 62.7500°W)
Time: 00:33:49
(UTC-03:00)

NOSS 3-1 (A) - Visible Passes

Search period start: 26 May 2015 00:00
Search period end: 05 June 2015 00:00
Orbit: 883 x 1330 km, 63.4° (Epoch: 20 May)

Date Brightness Start Highest point End Pass type
(mag) Time Alt. Az. Time Alt. Az. Time Alt. Az.
26 May 6.4 00:46:41 10° NW 00:51:19 19° N 00:56:15 10° NE visible
26 May 6.1 02:39:09 10° NNW 02:44:53 26° NNE 02:51:09 10° ENE visible
26 May 4.6 04:29:58 10° NW 04:37:17 64° NE 04:45:18 10° SE visible
26 May 4.9 22:07:04 10° WSW 22:12:59 44° NW 22:19:29 10° NNE visible
27 May 6.3 00:01:04 10° WNW 00:05:52 20° NNW 00:10:58 10° NE visible
27 May 6.3 01:54:17 10° NNW 01:59:30 22° NNE 02:05:11 10° ENE visible
27 May 5.1 03:45:19 10° NNW 03:52:20 48° NE 04:00:02 10° ESE visible
27 May 4.2 21:21:58 10° SW 21:28:03 62° NW 21:34:46 10° NE visible
27 May 6.1 23:15:23 10° WNW 23:20:29 23° NNW 23:25:56 10° NNE visible
28 May 6.4 01:09:14 10° NW 01:14:04 20° N 01:19:17 10° NE visible
28 May 5.5 03:00:40 10° NNW 03:07:15 36° NE 03:14:28 10° E visible
28 May 5.8 22:29:44 10° W 22:35:11 28° NNW 22:41:03 10° NNE visible
29 May 6.4 00:23:57 10° NW 00:28:36 19° N 00:33:33 10° NE visible
29 May 5.9 02:15:58 10° NNW 02:22:02 29° NNE 02:28:41 10° E visible
29 May 4.2 04:06:45 10° NW 04:14:11 78° NE 04:22:18 10° SE visible
29 May 5.4 21:44:14 10° W 21:50:00 36° NW 21:56:18 10° NNE visible
29 May 6.4 23:38:27 10° NW 23:43:07 19° N 23:48:05 10° NE visible
30 May 6.1 01:31:12 10° NNW 01:36:43 24° NNE 01:42:46 10° ENE visible
30 May 4.7 03:22:05 10° NW 03:29:18 57° NE 03:37:13 10° ESE visible
30 May 6.2 22:52:47 10° WNW 22:57:41 21° NNW 23:02:55 10° NNE visible
31 May 6.3 00:46:16 10° NW 00:51:19 21° NNE 00:56:48 10° ENE visible
31 May 5.2 02:37:26 10° NNW 02:44:17 43° NE 02:51:49 10° ESE visible
31 May 4.1 04:28:19 10° NW 04:35:43 62° WSW 04:43:41 10° SSE visible
31 May 6.0 22:07:06 10° WNW 22:12:20 25° NNW 22:17:57 10° NNE visible
01 Jun 6.4 00:01:08 10° NW 00:05:52 19° N 00:10:57 10° NE visible
01 Jun 5.6 01:52:46 10° NNW 01:59:09 33° NNE 02:06:10 10° E visible
01 Jun 4.0 03:43:33 10° NW 03:51:02 87° SW 03:59:10 10° SE visible
01 Jun 5.7 21:21:30 10° W 21:27:05 31° NNW 21:33:07 10° NNE visible
01 Jun 6.4 23:15:46 10° NW 23:20:23 19° N 23:25:19 10° NE visible
02 Jun 5.9 01:08:03 10° NNW 01:13:55 27° NNE 01:20:19 10° E visible
02 Jun 4.3 02:58:51 10° NW 03:06:13 69° NE 03:14:17 10° SE visible
02 Jun 6.3 22:30:11 10° NW 22:34:56 20° N 22:39:58 10° NE visible
03 Jun 6.1 00:23:14 10° NNW 00:28:34 22° NNE 00:34:22 10° ENE visible
03 Jun 4.8 02:14:11 10° NNW 02:21:18 51° NE 02:29:04 10° ESE visible
03 Jun 4.2 04:05:14 10° NW 04:12:28 50° WSW 04:20:11 10° S visible
03 Jun 6.2 21:44:30 10° WNW 21:49:31 22° NNW 21:54:53 10° NNE visible
03 Jun 6.2 23:38:13 10° NW 23:43:08 20° N 23:48:25 10° NE visible
04 Jun 5.3 01:29:33 10° NNW 01:36:14 39° NE 01:43:34 10° ESE visible
04 Jun 4.0 03:20:23 10° NW 03:27:50 72° SW 03:35:54 10° SSE visible
04 Jun 6.3 22:53:00 10° NW 22:57:40 19° N 23:02:39 10° NE visible
